Regional Weather Roundup
Issued by NWS

Home | Current Version | Previous Version | Graphics & Text | Print | Product List | Glossary On
Versions: 1 2 3 4 5 6 7 8 9 10 11 12 13 14 15 16 17 18 19 20 21 22 23 24 25 26 27 28 29 30 31 32 33 34 35 36 37 38 39 40 41 42 43 44 45 46 47 48 49 50
311
ASUS43 KFSD 282102
RWRSD

WEATHER ROUNDUP FOR SOUTH DAKOTA
NATIONAL WEATHER SERVICE SIOUX FALLS SD
400 PM CDT SAT MAY 28 2016

NOTE: "FAIR" INDICATES FEW OR NO CLOUDS BELOW 12,000 FEET WITH NO
SIGNIFICANT WEATHER AND/OR OBSTRUCTIONS TO VISIBILITY.


SDZ001>005-009-010-012>017-282200-
NORTHWEST AND NORTH CENTRAL SOUTH DAKOTA

CITY           SKY/WX    TMP DP  RH WIND       PRES   REMARKS
BUFFALO          N/A     66  51  58 NE10      29.85R
FAITH            N/A     71  44  37 VRB7      29.87S
MOBRIDGE       MOSUNNY   74  48  39 NW3       29.82F
$$

SDZ012>016-024>037-041>051-057-063-072>074-282200-
SOUTHWEST AND SOUTH CENTRAL SOUTH DAKOTA

CITY           SKY/WX    TMP DP  RH WIND       PRES   REMARKS
RAPID CTY ARPT CLOUDY    64  53  67 W7        29.94S
PIERRE         CLOUDY    74  53  48 MISG      29.84S
CUSTER         LGT RAIN  51  45  79 NE8       30.00S
ELLSWORTH AFB  CLOUDY    62  55  79 SW10      29.93S
PHILIP         SUNNY     71  49  45 VRB3      29.88S
PINE RIDGE     CLOUDY    72  42  34 NW8       29.91R
WINNER         FAIR      72  54  53 NW12G18   29.87R
$$

SDZ004>011-016>023-039-040-282200-
NORTHEAST SOUTH DAKOTA

CITY           SKY/WX    TMP DP  RH WIND       PRES   REMARKS
ABERDEEN       LGT RAIN  63  57  81 NW3       29.83S
WATERTOWN      CLOUDY    64  58  80 NE8       29.82R
BROOKINGS      CLOUDY    63  58  83 NE10      29.81R
SISSETON         N/A     69  53  56 NE9       29.79S
$$

SDZ017-020-022-023-036>040-048>070-282200-
SOUTHEAST SOUTH DAKOTA

CITY           SKY/WX    TMP DP  RH WIND       PRES   REMARKS
SIOUX FALLS    CLOUDY    65  58  78 NE8       29.78R
HURON          LGT RAIN  62  60  93 MISG      29.83S
MITCHELL       CLOUDY    64  60  87 NW12      29.84R
YANKTON        CLOUDY    63  57  82 NW12      29.79S
$$

ABBREVIATIONS USED IN REMARKS
   TC - TEMPERATURE IN CELSIUS
  WCI - WIND CHILL INDEX
   HX - HEAT INDEX
  VSB - VISIBILITY





USA.gov is the U.S. government's official web portal to all federal, state and local government web resources and services.